Moses Lake, WA
on Thursday, December 13, 2012

Thursday
Previous Day Next Day
Daily Summary
 ActualAverageRecord
Temperature
Mean Temperature °F 28°F  
Max Temperature 31°F 34°F 51°F (2014)
Min Temperature 29°F 23°F 7°F (1984)
Degree Days
Heating Degree Days 35 36  
Month to date heating degree days 343 455  
Since 1 July heating degree days 1611 1916  
Cooling Degree Days 0 0  
Month to date cooling degree days 0 0  
Year to date cooling degree days 719 615  
Moisture
Dew Point 28°F   
Average Humidity 89    
Maximum Humidity 92    
Minimum Humidity 85    
Precipitation
Precipitation 0.00 in 0.04 in 0.45 in (1982)
Month to date precipitation 0.75 0.48  
Year to date precipitation 8.49 8.15  
Wind
Wind Speed 4 mph   
Max Wind Speed 9 mph   
Max Gust Speed 10 mph   
Visibility 4 miles   
Events     

Key: T is trace of precipitation, MM is missing value
Source: NWS Daily Summary
Time(PST)TemperatureDew PointHumidity Pressure Visibility Wind DirectionWind SpeedGust SpeedPrecipitationEvents Conditions
12:01 AM 30.2°F 28.4°F 93% 30.00 in 1.2 miles Calm Calm - N/A   Overcast
12:15 AM 30.2°F 28.4°F 93% 30.00 in 2.5 miles NNE 3.5 mph - N/A   Overcast
12:25 AM 30.2°F 28.4°F 93% 30.00 in 1.2 miles North 3.5 mph - N/A   Overcast
12:36 AM 30.2°F 28.4°F 93% 30.00 in 0.8 miles NNE 4.6 mph - N/A   Mist
12:50 AM 30.2°F 28.4°F 93% 30.00 in 2.0 miles NNE 5.8 mph - N/A   Overcast
12:52 AM 30.9°F 28.0°F 89% 30.04 in 3.0 miles NNE 5.8 mph - N/A   Overcast
1:52 AM 30.9°F 28.0°F 89% 30.05 in 4.0 miles Calm Calm - N/A   Overcast
2:52 AM 30.9°F 28.9°F 92% 30.06 in 8.0 miles Variable 3.5 mph - N/A   Overcast
3:52 AM 30.0°F 28.0°F 92% 30.06 in 6.0 miles North 4.6 mph - N/A   Overcast
4:19 AM 30.2°F 28.4°F 93% 30.02 in 2.0 miles North 5.8 mph - N/A   Overcast
4:30 AM 28.4°F 26.6°F 93% 30.03 in 4.0 miles North 4.6 mph - N/A   Overcast
4:52 AM 28.9°F 27.0°F 92% 30.06 in 4.0 miles Calm Calm - N/A   Overcast
5:24 AM 28.4°F 26.6°F 93% 30.02 in 2.5 miles Calm Calm - N/A   Overcast
5:31 AM 28.4°F 26.6°F 93% 30.03 in 3.0 miles West 3.5 mph - N/A   Overcast
5:41 AM 30.2°F 26.6°F 86% 30.03 in 2.5 miles Calm Calm - N/A   Overcast
5:52 AM 28.9°F 27.0°F 92% 30.07 in 2.0 miles West 3.5 mph - N/A   Overcast
6:52 AM 28.9°F 27.0°F 92% 30.08 in 2.0 miles Calm Calm - N/A   Overcast
7:26 AM 28.4°F 26.6°F 93% 30.04 in 1.5 miles Calm Calm - N/A   Overcast
7:52 AM 30.0°F 27.0°F 88% 30.08 in 1.5 miles Calm Calm - N/A   Overcast
7:59 AM 30.2°F 26.6°F 86% 30.04 in 0.5 miles Calm Calm - N/A   Overcast
8:52 AM 30.0°F 27.0°F 88% 30.08 in 0.5 miles Calm Calm - N/A   Overcast
9:52 AM 30.0°F 27.0°F 88% 30.08 in 0.5 miles Calm Calm - N/A   Overcast
10:52 AM 30.0°F 27.0°F 88% 30.06 in 6.0 miles ESE 3.5 mph - N/A   Overcast
10:59 AM 30.2°F 28.4°F 93% 30.01 in 1.5 miles Calm Calm - N/A   Overcast
11:52 AM 30.0°F 28.0°F 92% 30.05 in 1.5 miles Variable 3.5 mph - N/A   Overcast
11:59 AM 30.2°F 28.4°F 93% 30.00 in 7.0 miles Calm Calm - N/A   Overcast
12:52 PM 30.0°F 28.0°F 92% 30.02 in 8.0 miles East 3.5 mph - N/A   Overcast
1:48 PM 30.2°F 28.4°F 93% 29.95 in 10.0 miles SE 4.6 mph - N/A   Overcast
1:52 PM 30.9°F 28.0°F 89% 29.99 in 10.0 miles SSE 5.8 mph - N/A   Overcast
4:52 PM 30.9°F 28.9°F 92% 29.96 in 4.0 miles NW 5.8 mph - N/A   Overcast
5:52 PM 30.9°F 28.9°F 92% 29.95 in 3.0 miles NNW 4.6 mph - N/A   Overcast
6:52 PM 30.9°F 28.9°F 92% 29.94 in 3.0 miles North 4.6 mph - N/A   Overcast
7:52 PM 30.9°F 28.9°F 92% 29.92 in 3.0 miles North 5.8 mph - N/A   Overcast
8:00 PM 30.2°F 28.4°F 93% 29.87 in 4.0 miles NNE 4.6 mph - N/A   Overcast
8:52 PM 30.9°F 28.9°F 92% 29.91 in 4.0 miles North 6.9 mph - N/A   Overcast
9:23 PM 30.2°F 28.4°F 93% 29.87 in 4.0 miles North 6.9 mph - N/A   Overcast
9:33 PM 30.2°F 28.4°F 93% 29.87 in 4.0 miles North 8.1 mph - N/A   Overcast
9:41 PM 30.2°F 28.4°F 93% 29.87 in 4.0 miles North 9.2 mph - N/A   Overcast
9:52 PM 30.2°F 28.4°F 93% 29.87 in 4.0 miles North 6.9 mph - N/A   Overcast
10:52 PM 30.9°F 28.9°F 92% 29.91 in 4.0 miles North 8.1 mph - N/A   Overcast
11:52 PM 30.9°F 28.9°F 92% 29.89 in 3.0 miles North 4.6 mph - N/A   Overcast
Moon Phase
Dec. 13 Dec. 20 Dec. 28 Jan. 04 Jan. 11
Sunrise:07:36 AM (PST) Moon Rise:07:48 AM (PST)12/13
Sunset:04:07 PM (PST) Moon Set:04:57 PM (PST)12/13

Copyright © 2014 The Weather Underground, Inc.